Location: Grust
(42.8833°N, 0.0333°W)
Time: 14:09:08
(UTC+00:00)

Cosmos 2227 Rocket - Pass Details

Date: 25 October 2020
Orbit: 839 x 845 km, 71.0° (Epoch: 25 November)

Event Time Altitude Azimuth Distance (km) Brightness Sun altitude
Rises 19:35:12 0° 329° (NNW) 3,406 5.9 -28.7°
Reaches altitude 10° 19:37:44 10° 323° (NW) 2,468 5.2 -29.2°
Maximum altitude 19:43:04 43° 253° (WSW) 1,162 3.2 -30.1°
Enters shadow 19:45:20 29° 204° (SSW) 1,491 3.5 -30.5°
